Погода Брохово

Погода Брохово : погода сейчас, прогноз погоды и архив. Всё, что Вы хотите узнать о погоде Брохово!

Поиск расширенной информации на нашем сайте:

Другие новости

Новости СМИ2

Главная страница сайта

Новости сайта

03.07.2017

Напоминаем, что на нашем специализированном сайте Метеоцентр.Азия вы можете получить высокодетализированные автоматические прогнозы погоды по пунктам России, СНГ и мира в авиационном формате (включающие направление и скорость ветра, видимость, явления погоды, количество и форму облачности, нижнюю и верхнюю границу облачности).


Погода Брохово - сегодня

Время (UTC), дата Ветер
(°,м/с) 
Видим.   Явления Облачность Т
(°С)
Тd
(°С)
f(%) Тe
(°С)
Pmin
(гПа)
dP
(гПа)
Po
(мм)
O2
(г/м3)
Тmin Tmax R s Состояние
почвы
21 21.05.18 300 (СЗ) 20000 м    9/6 600 м средняя 
[Sc|Ac trans]
+0.3 -0.3 96 -2  999.7  -2.3  749  302  -0.8      142  мокрый или
старый снег
50-90% 
00 22.05.18 040 (СВ) 20000 м    10/3 600 м средняя 
[Sc|As trans]
+2.9 -3.3 64 +1  998.4  -1.3  748  299           
03 22.05.18 040 (СВ) 20000 м    10/0 средняя 
[As trans]
+1.8 -2.6 73 -1  998.2  -0.2  748  300           
06 22.05.18 050 (СВ) 7{10}  20000 м    10/0 средняя 
[As trans]
+1.7 -1.7 78 -2  998.8  0.6  749  300           
12 22.05.18 040 (СВ) 20000 м    8/6 600 м средняя 
[Sc|Ac trans]
+1.6 -2.2 76 -1  1001.5  1.6  751  301           
15 22.05.18 360 (С) 20000 м    8/3 600 м средняя, верхняя 
[Sc|Ac trans|Ci fib]
-1.1 -1.8 95 -3  1001.9  0.4  751  304           
18 22.05.18 310 (СЗ) 20000 м    6/3 600 м средняя, верхняя 
[Sc|Ac trans|Ci fib]
-0.2 -3.8 77 -3  1003.3  1.4  752  304           
21 22.05.18 040 (СВ) 20000 м    8/3 600 м средняя, верхняя 
[Sc|Ac trans|Ci fib]
+3.8 -0.5 73 +3  1004.6  1.3  753  299  -0.3      140  мокрый или
старый снег
50-90% 
00 23.05.18 010 (С) 20000 м    10/3 600 м средняя, верхняя 
[Sc|Ac trans|Cs]
+4 -2.2 64 +3  1005.3  0.7  753  299           
03 23.05.18 030 (СВ) 20000 м    9/3 600 м средняя, верхняя 
[Ac trans|Ci fib]
+5 -2.2 60 +5  1006.2  0.9  754  299           
06 23.05.18 090 (В) 20000 м    9/0 средняя, верхняя 
[Ac trans|Ci fib]
+5.6 -1.4 61 +6  1006.8  0.7  755  298           
12 23.05.18 210 (ЮЗ) 20000 м    3/0 верхняя 
[Ci fib]
-0.9 -3.8 81 -3  1008.4  0.7  756  306           
15 23.05.18 210 (ЮЗ) 20000 м    9/9 600 м 
[Sc]
-0.6 -34.7 6 -3  1008.9  0.5  756  307           
18 23.05.18 190 (Ю) 16000 м    8/0 
[Sc]
+1.4 -1.4 82 1009.6  0.7  757  304           
21 23.05.18 190 (Ю) 20000 м    8/4 1000 м средняя 
[Sc|Ac trans]
+2.2 -1.5 76 +2  1010.3  7.6  757  303  -2.4      136  мокрый или
старый снег
50-90% 
00 24.05.18 160 (Ю) 20000 м    3/0 верхняя 
[Ci fib]
+4.2 -1.9 64 +5  1010.8  0.5  758  301           
03 24.05.18 150 (ЮВ) 20000 м    ясно 
+5.5 -1.5 61 +5  1011.1  0.3  758  299           
06 24.05.18 200 (Ю) 20000 м    ясно верхняя 
[Ci fib]
+3.2 -2.9 64 +2  1011.3  0.2  758  302           
12 24.05.18 190 (Ю) 20000 м    3/0 верхняя 
[Ci fib]
-0.7 -3.5 81 -3  1011.7  0.1  758  307           
15 24.05.18 200 (Ю) 20000 м    3/0 верхняя 
[Ci fib]
-2.2 -4.7 83 -4  1011.3  -0.4  758  308           
18 24.05.18 200 (Ю) 20000 м    8/0 верхняя 
[Ci fib]
-1.8 -4.2 84 -5  1011.1  -0.2  758  308           
21 24.05.18 200 (Ю) 20000 м    8/0 верхняя 
[Ci fib]
+1.7 -31.7 6 1010.9  -0.2  758  305  -3.1      132  мокрый или
старый снег
50-90% 
00 25.05.18 180 (Ю) 20000 м    4/0 верхняя 
[Ci fib]
+3.6 -1.7 68 +2  1010.7  -0.2  758  301           
03 25.05.18 190 (Ю) 20000 м    8/0 верхняя 
[Ci fib]
+3.7 -1.2 70 +1  1010.4  -0.3  757  301           
06 25.05.18 200 (Ю) 20000 м    8/0 верхняя 
[Ci fib]
+2.9 -1.6 72 1010.1  -0.3  757  302           
Время (UTC), дата Ветер
(°,м/с) 
Видим.   Явления Облачность Т
(°С)
Тd
(°С)
f(%) Тe
(°С)
Pmin
(гПа)
dP
(гПа)
Po
(мм)
O2
(г/м3)
Тmin Tmax R s Состояние
почвы

Для получения пояснительной информации подведите курсор к названию столбца.

ПОГОДА Брохово - архив

Всё, что Вы хотите узнать о погоде Брохово - удобно и подробно!

Выберите нужную дату (начиная с 1 января 2015* года) и нажмите кнопку "Найти".
Будут отображены архивные сводки погоды по пункту Брохово, начиная с указанной даты.


Отображать данные в формате CSV (для использования в таблицах Excel)


Внимание! Наш архив погоды предназначен исключительно для личного некоммерческого использования в познавательных целях. Если Вам необходимы официальные справки о состоянии погоды (для производственных, юридических, коммерческих и т.п. целей), обращайтесь в органы Росгидромета.

*Примечание: данная дата относится к архиву по метеостанциям СССР (Россия, СНГ, Балтия).
Архив по метеостанциям Зарубежной Европы и Азии (кроме Китая) хранится 10 дней, по другим регионам земного шара (Китай, Африка, Америка, Австралия, Океания) - 1 день.

Брохово - район местоположения метеостанции


Название, широта, долгота, высота метеостанции:
Брохово 59.7°ш. 154.3°д. 5 м над ур. моря [Российская Федерация]

Дополнительная информация

В oтличие oт бoльшинства пoгoдных сайтoв мы публикуем пoдрoбную метеoинфoрмацию в детальнoм прoфессиoнальнoм фoрмате.

Характеристики температуры и влажнoсти вoздуха измеряются на высoте 2 м в тени вдали oт зданий и деревьев.
Скoрoсть ветра измеряется на высoте 10 м (на урoвне рoста челoвека скoрoсть ветра ниже в 1.5-2 раза). Если метеoстанция нахoдится в гoрoде или в лесу, тo скoрoсть ветра занижена на 2-4 м/с пo сравнению с oткрытым местoм. Скoрoсть ветра над акватoриями крупных рек и oзёр, а также на вершинах хoлмoв на 2-5 м/с выше, чем в oбычных услoвиях.
Атмoсфернoе давление в разных тoчках местнoсти мoжет значительнo oтличаться oт давления на метеoстанции, в зависимoсти oт услoвий рельефа (при пoдъёме на 10 м давление пoнижается примернo на 1 мм рт.ст.).